CFG29P EDDF-LEBB

Flight info

Callsign CFG29P
Flight time N/A
Altitude 35000
Route SOBRA2L SOBRA Y180 DIK UN857 TOLVU DCT RAPOR DCT GIMER DCT ESTOC UT300 PON UN872 GODIX/N0446F310 UN872 TERPO DCT PEXOD DCT NENEM N867 MAPAX
Aircraft A320/M-SDE3FGHIRWY/LB1

Departure

Time 2026-05-06 18:16
Airport Frankfurt Main Airport (EDDF)

Arrival

Time N/A
Airport Bilbao Airport (LEBB)
Time Latitude Longitude Altitude Speed Heading
2026-05-06 16:52 50.03724 8.54228 355 ft 0 kts 160°
2026-05-06 18:11 50.03705 8.54240 352 ft 5 kts 159°
2026-05-06 18:11 50.03663 8.54257 347 ft 7 kts 183°
2026-05-06 18:11 50.03633 8.54207 342 ft 7 kts 246°
2026-05-06 18:12 50.03609 8.54112 348 ft 12 kts 249°
2026-05-06 18:12 50.03578 8.53985 339 ft 14 kts 249°
2026-05-06 18:12 50.03542 8.53839 337 ft 15 kts 249°
2026-05-06 18:12 50.03497 8.53679 338 ft 17 kts 250°
2026-05-06 18:13 50.03460 8.53530 338 ft 9 kts 243°
2026-05-06 18:13 50.03447 8.53445 336 ft 7 kts 267°
2026-05-06 18:13 50.03431 8.53366 335 ft 10 kts 249°
2026-05-06 18:13 50.03393 8.53215 337 ft 17 kts 249°
2026-05-06 18:14 50.03349 8.53028 334 ft 19 kts 250°
2026-05-06 18:14 50.03303 8.52834 332 ft 19 kts 250°
2026-05-06 18:14 50.03268 8.52657 335 ft 14 kts 260°
2026-05-06 18:14 50.03224 8.52594 334 ft 0 kts 180°
2026-05-06 18:15 50.03216 8.52594 335 ft 7 kts 180°
2026-05-06 18:15 50.02961 8.52593 335 ft 74 kts 182°
2026-05-06 18:15 50.02231 8.52601 334 ft 138 kts 179°
2026-05-06 18:15 50.01062 8.52601 446 ft 186 kts 183°
2026-05-06 18:16 49.99711 8.52560 1037 ft 205 kts 184°
2026-05-06 18:16 49.98177 8.52460 1496 ft 234 kts 185°
2026-05-06 18:16 49.96506 8.52477 2376 ft 243 kts 178°
2026-05-06 18:16 49.94820 8.52643 3602 ft 231 kts 179°
2026-05-06 18:17 49.93248 8.52827 4376 ft 233 kts 178°
2026-05-06 18:17 49.91632 8.53012 4337 ft 231 kts 179°
2026-05-06 18:17 49.90032 8.53189 4334 ft 231 kts 179°
2026-05-06 18:17 49.88427 8.53343 4333 ft 230 kts 181°
2026-05-06 18:18 49.86852 8.53116 4477 ft 225 kts 197°
2026-05-06 18:18 49.85295 8.52320 4809 ft 247 kts 202°
2026-05-06 18:18 49.83635 8.51388 5421 ft 257 kts 202°
2026-05-06 18:18 49.81935 8.50432 6213 ft 262 kts 202°
2026-05-06 18:19 49.80216 8.49464 6974 ft 265 kts 202°
2026-05-06 18:19 49.78566 8.48256 7697 ft 267 kts 216°
2026-05-06 18:19 49.77227 8.46275 8438 ft 268 kts 235°
2026-05-06 18:19 49.76382 8.43703 9181 ft 272 kts 253°
2026-05-06 18:20 49.76126 8.40793 9895 ft 277 kts 268°
2026-05-06 18:20 49.76019 8.37723 10199 ft 296 kts 264°
2026-05-06 18:20 49.75772 8.34437 10401 ft 318 kts 262°
2026-05-06 18:20 49.75461 8.31002 10910 ft 326 kts 261°
2026-05-06 18:21 49.75138 8.27499 11552 ft 331 kts 261°
2026-05-06 18:21 49.74825 8.23965 12226 ft 334 kts 262°
2026-05-06 18:21 49.74523 8.20370 12879 ft 339 kts 262°
2026-05-06 18:21 49.74228 8.16728 13522 ft 343 kts 262°
2026-05-06 18:22 49.73936 8.13044 14098 ft 347 kts 262°
2026-05-06 18:22 49.73648 8.09329 14696 ft 350 kts 262°
2026-05-06 18:22 49.73358 8.05581 15276 ft 352 kts 262°
2026-05-06 18:22 49.73063 8.01800 15870 ft 355 kts 262°
2026-05-06 18:23 49.72764 7.97991 16429 ft 358 kts 262°
2026-05-06 18:23 49.72461 7.94175 16974 ft 362 kts 262°
2026-05-06 18:23 49.72255 7.91594 17345 ft 364 kts 262°
2026-05-06 18:23 49.71943 7.87684 17918 ft 367 kts 262°
2026-05-06 18:24 49.71629 7.83756 18462 ft 369 kts 262°
2026-05-06 18:24 49.71311 7.79804 18927 ft 373 kts 262°
2026-05-06 18:24 49.70987 7.75815 19401 ft 376 kts 262°
2026-05-06 18:24 49.70654 7.71757 19795 ft 382 kts 262°
2026-05-06 18:25 49.70314 7.67669 20260 ft 386 kts 262°
2026-05-06 18:25 49.69974 7.63564 20817 ft 387 kts 262°
2026-05-06 18:25 49.69632 7.59418 21320 ft 389 kts 262°
2026-05-06 18:25 49.69290 7.55247 21786 ft 393 kts 262°
2026-05-06 18:26 49.68941 7.50998 22274 ft 395 kts 262°
2026-05-06 18:26 49.68590 7.46770 22751 ft 398 kts 262°
2026-05-06 18:26 49.68226 7.42464 23198 ft 401 kts 262°
2026-05-06 18:26 49.67858 7.38181 23586 ft 404 kts 262°
2026-05-06 18:27 49.67488 7.33852 23945 ft 407 kts 261°
2026-05-06 18:27 49.67118 7.29520 24302 ft 409 kts 261°
2026-05-06 18:27 49.66743 7.25152 24657 ft 411 kts 262°
2026-05-06 18:27 49.66362 7.20756 25003 ft 414 kts 262°
2026-05-06 18:28 49.65979 7.16350 25389 ft 414 kts 261°
2026-05-06 18:28 49.65592 7.11880 25763 ft 416 kts 261°
2026-05-06 18:28 49.65210 7.07510 26112 ft 417 kts 262°
2026-05-06 18:28 49.64819 7.03052 26417 ft 420 kts 261°
2026-05-06 18:29 49.64425 6.98590 26716 ft 422 kts 261°
2026-05-06 18:29 49.64028 6.94093 27031 ft 424 kts 261°
2026-05-06 18:29 49.63624 6.89551 27349 ft 426 kts 260°
2026-05-06 18:29 49.63219 6.85009 27645 ft 428 kts 261°
2026-05-06 18:30 49.62811 6.80444 27936 ft 430 kts 260°
2026-05-06 18:30 49.62399 6.75863 28231 ft 432 kts 260°
2026-05-06 18:30 49.61982 6.71275 28557 ft 433 kts 260°
2026-05-06 18:30 49.61561 6.66658 28874 ft 434 kts 260°
2026-05-06 18:31 49.61143 6.62065 29158 ft 436 kts 260°
2026-05-06 18:31 49.60719 6.57414 29427 ft 438 kts 260°
2026-05-06 18:31 49.60295 6.52811 29695 ft 439 kts 260°
2026-05-06 18:31 49.59856 6.48084 29937 ft 441 kts 260°
2026-05-06 18:32 49.59420 6.43399 30143 ft 443 kts 260°
2026-05-06 18:32 49.58982 6.38692 30348 ft 444 kts 260°
2026-05-06 18:32 49.58540 6.33985 30548 ft 445 kts 260°
2026-05-06 18:32 49.58095 6.29255 30745 ft 446 kts 260°
2026-05-06 18:33 49.57646 6.24510 30944 ft 448 kts 260°
2026-05-06 18:33 49.57193 6.19757 31087 ft 450 kts 260°
2026-05-06 18:33 49.56737 6.14981 31240 ft 451 kts 260°
2026-05-06 18:33 49.56277 6.10192 31413 ft 452 kts 260°
2026-05-06 18:34 49.55814 6.05414 31648 ft 451 kts 260°
2026-05-06 18:34 49.55349 6.00643 31884 ft 450 kts 260°
2026-05-06 18:34 49.54883 5.95867 32096 ft 450 kts 260°
2026-05-06 18:34 49.54418 5.91112 32331 ft 450 kts 260°
2026-05-06 18:35 49.53947 5.86328 32561 ft 449 kts 259°
2026-05-06 18:35 49.53480 5.81585 32788 ft 449 kts 260°
2026-05-06 18:35 49.53012 5.76844 33017 ft 448 kts 260°
2026-05-06 18:35 49.52542 5.72093 33240 ft 448 kts 260°
2026-05-06 18:36 49.52070 5.67377 33467 ft 447 kts 260°
2026-05-06 18:36 49.51592 5.62633 33692 ft 447 kts 259°
2026-05-06 18:36 49.51117 5.57925 33910 ft 446 kts 260°
2026-05-06 18:36 49.50641 5.53195 34097 ft 446 kts 260°
2026-05-06 18:37 49.50163 5.48473 34273 ft 446 kts 259°
2026-05-06 18:37 49.49683 5.43769 34453 ft 446 kts 259°
2026-05-06 18:37 49.49202 5.39074 34625 ft 445 kts 259°
2026-05-06 18:37 49.48714 5.34360 34806 ft 445 kts 260°
2026-05-06 18:38 49.47743 5.24990 34903 ft 441 kts 260°
2026-05-06 18:38 49.46773 5.15709 34899 ft 439 kts 260°
2026-05-06 18:39 49.45796 5.06435 34899 ft 439 kts 260°
2026-05-06 18:40 49.44332 4.92601 34908 ft 439 kts 260°
2026-05-06 18:40 49.43339 4.83346 34909 ft 439 kts 260°
2026-05-06 18:41 49.42341 4.74075 34909 ft 440 kts 260°
2026-05-06 18:41 49.41331 4.64813 34910 ft 440 kts 260°
2026-05-06 18:42 49.40311 4.55546 34911 ft 440 kts 259°
2026-05-06 18:42 49.39287 4.46295 34912 ft 440 kts 259°
2026-05-06 18:43 49.38247 4.36956 34911 ft 440 kts 260°
2026-05-06 18:43 49.37213 4.27781 34914 ft 440 kts 259°
2026-05-06 18:44 49.36168 4.18533 34911 ft 440 kts 259°
2026-05-06 18:44 49.35112 4.09299 34913 ft 439 kts 259°
2026-05-06 18:45 49.34044 4.00066 34915 ft 440 kts 259°
2026-05-06 18:45 49.32980 3.90835 34925 ft 440 kts 259°
2026-05-06 18:46 49.31913 3.81594 34925 ft 440 kts 259°
2026-05-06 18:46 49.30976 3.73599 34928 ft 440 kts 259°
2026-05-06 18:47 49.29862 3.64191 34943 ft 440 kts 259°
2026-05-06 18:47 49.28688 3.54338 34938 ft 440 kts 259°
2026-05-06 18:48 49.27582 3.45134 34941 ft 440 kts 259°
2026-05-06 18:48 49.26443 3.35763 34946 ft 440 kts 259°
2026-05-06 18:49 49.25321 3.26528 34945 ft 440 kts 259°
2026-05-06 18:49 49.24197 3.17328 34945 ft 440 kts 259°
2026-05-06 18:50 49.23060 3.08123 34943 ft 440 kts 259°
2026-05-06 18:50 49.21920 2.98946 34948 ft 439 kts 259°
2026-05-06 18:51 49.20776 2.89778 34952 ft 439 kts 259°
2026-05-06 18:51 49.19618 2.80588 34948 ft 439 kts 259°
2026-05-06 18:52 49.18468 2.71535 34949 ft 439 kts 259°
2026-05-06 18:52 49.17303 2.62378 34953 ft 439 kts 259°
2026-05-06 18:53 49.16134 2.53239 34951 ft 439 kts 259°
2026-05-06 18:53 49.14945 2.44095 34957 ft 438 kts 259°
2026-05-06 18:54 49.13754 2.34954 34973 ft 438 kts 259°
2026-05-06 18:54 49.12566 2.25831 34974 ft 438 kts 259°
2026-05-06 18:55 49.11368 2.16734 34971 ft 438 kts 259°
2026-05-06 18:55 49.10147 2.07610 34976 ft 438 kts 259°
2026-05-06 18:56 49.08174 1.98759 34975 ft 440 kts 246°
2026-05-06 18:56 49.05642 1.90354 34974 ft 440 kts 246°
2026-05-06 18:57 49.03085 1.81870 34967 ft 440 kts 246°
2026-05-06 18:57 49.00525 1.73417 34970 ft 440 kts 246°
2026-05-06 18:58 48.97954 1.64950 34971 ft 440 kts 246°
2026-05-06 18:58 48.95377 1.56497 34977 ft 441 kts 246°
2026-05-06 18:59 48.92790 1.48046 34976 ft 441 kts 246°
2026-05-06 18:59 48.90203 1.39589 34984 ft 441 kts 246°
2026-05-06 19:00 48.87607 1.31147 34972 ft 441 kts 246°
2026-05-06 19:00 48.84999 1.22723 34978 ft 441 kts 246°
2026-05-06 19:01 48.82369 1.14227 34993 ft 449 kts 246°
2026-05-06 19:01 48.79705 1.05653 34990 ft 455 kts 246°
2026-05-06 19:02 48.76987 0.96920 34989 ft 460 kts 246°
2026-05-06 19:02 48.74196 0.88217 34986 ft 462 kts 240°
2026-05-06 19:03 48.70856 0.79952 34988 ft 463 kts 240°
2026-05-06 19:03 48.67484 0.71641 34992 ft 463 kts 239°
2026-05-06 19:04 48.64111 0.63341 34993 ft 463 kts 239°
2026-05-06 19:04 48.60743 0.55071 34995 ft 463 kts 239°
2026-05-06 19:05 48.57901 0.48131 35002 ft 463 kts 239°
2026-05-06 19:05 48.54508 0.39852 34997 ft 463 kts 239°
2026-05-06 19:06 48.51112 0.31584 34997 ft 464 kts 239°
2026-05-06 19:06 48.47706 0.23329 34998 ft 464 kts 239°
2026-05-06 19:07 48.44293 0.15075 35011 ft 464 kts 239°
2026-05-06 19:07 48.40877 0.06840 35007 ft 464 kts 239°
2026-05-06 19:08 48.37449 -0.01381 35008 ft 464 kts 239°
2026-05-06 19:08 48.33872 -0.09480 35001 ft 465 kts 236°
2026-05-06 19:09 48.29980 -0.17239 34881 ft 466 kts 233°
2026-05-06 19:09 48.27987 -0.21087 34640 ft 465 kts 234°
2026-05-06 19:09 48.26013 -0.24928 34400 ft 465 kts 234°
2026-05-06 19:09 48.24066 -0.28739 34167 ft 466 kts 234°
2026-05-06 19:10 48.22071 -0.32649 33909 ft 466 kts 234°
2026-05-06 19:10 48.20126 -0.36458 33632 ft 466 kts 234°
2026-05-06 19:10 48.18131 -0.40363 33348 ft 466 kts 234°
2026-05-06 19:10 48.16165 -0.44209 33072 ft 466 kts 234°
2026-05-06 19:11 48.14219 -0.48011 32801 ft 466 kts 234°
2026-05-06 19:11 48.12245 -0.51863 32528 ft 466 kts 234°
2026-05-06 19:11 48.10273 -0.55705 32259 ft 466 kts 234°
2026-05-06 19:11 48.08294 -0.59551 31988 ft 465 kts 233°
2026-05-06 19:12 48.06321 -0.63378 31725 ft 465 kts 233°
2026-05-06 19:12 48.04341 -0.67209 31471 ft 465 kts 233°
2026-05-06 19:12 48.02363 -0.71030 31217 ft 465 kts 233°
2026-05-06 19:12 48.00380 -0.74853 30980 ft 465 kts 233°
2026-05-06 19:13 47.98399 -0.78660 30967 ft 465 kts 233°
2026-05-06 19:13 47.94428 -0.86296 30972 ft 465 kts 233°
2026-05-06 19:14 47.90456 -0.93937 30997 ft 466 kts 233°
2026-05-06 19:14 47.86478 -1.01564 30994 ft 466 kts 233°
2026-05-06 19:15 47.82495 -1.09179 30991 ft 466 kts 233°
2026-05-06 19:15 47.78497 -1.16791 30993 ft 466 kts 233°
2026-05-06 19:16 47.74494 -1.24366 30994 ft 466 kts 233°
2026-05-06 19:16 47.70483 -1.31946 30994 ft 468 kts 233°
2026-05-06 19:17 47.66454 -1.39551 30990 ft 468 kts 233°
2026-05-06 19:17 47.62426 -1.47124 30989 ft 468 kts 233°
2026-05-06 19:18 47.58350 -1.54652 30989 ft 468 kts 231°
2026-05-06 19:18 47.54018 -1.61860 30988 ft 469 kts 229°
2026-05-06 19:19 47.49582 -1.68917 30985 ft 468 kts 229°
2026-05-06 19:19 47.45191 -1.76012 30986 ft 468 kts 230°
2026-05-06 19:20 47.40836 -1.83151 30983 ft 467 kts 230°
2026-05-06 19:20 47.36368 -1.90128 30970 ft 469 kts 222°
2026-05-06 19:21 47.30804 -1.95174 30976 ft 474 kts 203°
2026-05-06 19:21 47.24624 -1.98612 30976 ft 475 kts 202°
2026-05-06 19:22 47.18428 -2.02027 30978 ft 475 kts 202°
2026-05-06 19:22 47.12240 -2.05450 30980 ft 475 kts 202°
2026-05-06 19:23 47.06070 -2.08866 30985 ft 473 kts 202°
2026-05-06 19:23 46.99906 -2.12258 30989 ft 473 kts 202°
2026-05-06 19:24 46.93750 -2.15630 30982 ft 473 kts 202°
2026-05-06 19:24 46.87580 -2.19009 30988 ft 474 kts 202°
2026-05-06 19:25 46.81406 -2.22386 30990 ft 474 kts 202°
2026-05-06 19:25 46.75234 -2.25754 30992 ft 474 kts 202°
2026-05-06 19:26 46.69054 -2.29109 30994 ft 474 kts 202°
2026-05-06 19:26 46.62881 -2.32456 30993 ft 473 kts 202°
2026-05-06 19:27 46.56709 -2.35802 30994 ft 474 kts 202°
2026-05-06 19:27 46.50487 -2.39157 30999 ft 473 kts 202°
2026-05-06 19:28 46.44308 -2.42471 31003 ft 472 kts 202°
2026-05-06 19:28 46.38158 -2.45773 31006 ft 471 kts 202°
2026-05-06 19:29 46.32064 -2.49054 31003 ft 471 kts 202°
2026-05-06 19:29 46.31075 -2.49586 31005 ft 471 kts 202°